Location: Newark
(34.6283°N, 36.0776°E)
Time: 04:51:55
(UTC+00:00)

Tiros 1 despin weight - Pass Details

Date: 28 September 2019
Orbit: 593 x 643 km, 48.2° (Epoch: 20 October)

Event Time Altitude Azimuth Distance (km) Brightness Sun altitude
Rises 07:48:56 0° 269° (W) 2,915 ? 46.9°
Reaches altitude 10° 07:51:37 10° 283° (WNW) 2,001 ? 47.2°
Maximum altitude 07:55:24 24° 338° (NNW) 1,278 ? 47.6°
Drops below altitude 10° 07:59:09 10° 33° (NNE) 1,979 ? 48.1°
Sets 08:01:48 0° 48° (NE) 2,875 ? 48.4°
